Content
SEND FEEDBACK

Daily
Averages
Monthly
Summary
United States of America

SNYDER, TEXAS


Home > North America > United States > Texas
Elevation: 2427 feet     Latitude: 32 41N     Longitude: 100 57W

WEATHER
 
SELECT A DAY
Number of Records: 278,549;   Date Range: 7/8/03 - 12/23/14
 
SHARE

PRINT THIS DATA

[ ← Previous Day ]
WEATHER ALMANAC - JANUARY 31, 2013
[ Next Day → ]
[ °C ]   °F
Weather ElementAverageHighLow
Temperature46.3 °F63 °F (4:35 pm)27.9 °F (2:55 am)
Dewpoint11.5 °F25.7 °F (11:55 pm)4.8 °F (12:35 am)
Humidity27.1 %51 % (11:55 pm)11 % (4:15 pm)
Barometer30.16 in30.28 in (11:55 pm)30.11 in (5:15 am)
Wind Speed7.7 mph17.3 mph (10:55 am)
Wind Gust21.9 mph (10:55 am)
Weather ElementAverage
Visibility10 mi
Wind DirectionS (177.3 °)

Weather ElementTotal
Precipitation---
Heating Degree Days19.6 (Base 65)
Averaged from 70 records on January 31, 2013
WEATHER CONDITIONS BREAKOUT
WIND DIRECTION BREAKOUT
WEATHER BY HOUR - JANUARY 31, 2013
[ °C ]   °F
Local TimeTemperatureDewpointHumidityBarometerVisibilityWind DirectionWind SpeedGust SpeedPrecipitationEventsConditions
12:35 AM34.9 °F4.8 °F28 %30.12 in10.0 miSSW (210°)8.1 mphClear
12:55 AM34.2 °F4.8 °F29 %30.13 in10.0 miSSW (210°)8.1 mphClear
1:15 AM34.2 °F5.5 °F30 %30.13 in10.0 miSSW (200°)8.1 mphClear
1:35 AM34.2 °F6.4 °F31 %30.13 in10.0 miSouth (190°)9.2 mphClear
1:55 AM33.8 °F6.6 °F32 %30.12 in10.0 miSouth (190°)6.9 mphClear
2:15 AM30.9 °F6.8 °F36 %30.13 in10.0 miSSW (200°)5.8 mphClear
2:35 AM29.3 °F7.7 °F40 %30.13 in10.0 miSSW (210°)5.8 mphClear
2:55 AM27.9 °F8.1 °F43 %30.13 in10.0 miSouth (190°)8.1 mphClear
3:15 AM29.3 °F7.5 °F40 %30.13 in10.0 miSouth (190°)9.2 mphClear
3:35 AM30.6 °F7.2 °F37 %30.13 in10.0 miSSW (210°)8.1 mphClear
3:55 AM29.8 °F7.9 °F40 %30.13 in10.0 miSW (220°)5.8 mphClear
4:15 AM31.1 °F7.0 °F36 %30.12 in10.0 miSSW (210°)5.8 mphClear
4:35 AM31.3 °F6.8 °F36 %30.12 in10.0 miSSW (200°)8.1 mphClear
4:55 AM30.4 °F6.8 °F37 %30.12 in10.0 miSSW (200°)6.9 mphClear
5:15 AM29.3 °F8.1 °F41 %30.11 in10.0 miSW (220°)5.8 mphClear
5:35 AM29.3 °F7.3 °F40 %30.11 in10.0 miWSW (250°)4.6 mphClear
5:55 AM31.1 °F6.6 °F36 %30.11 in10.0 miWSW (240°)5.8 mphClear
6:15 AM32.0 °F7.2 °F35 %30.11 in10.0 miWSW (240°)3.5 mphClear
6:35 AM31.5 °F8.1 °F37 %30.12 in10.0 miSouth (190°)5.8 mphClear
6:55 AM30.2 °F9.0 °F41 %30.12 in10.0 miSSW (200°)8.1 mphClear
7:15 AM29.5 °F9.3 °F43 %30.12 in10.0 miSouth (190°)8.1 mphClear
7:35 AM30.0 °F9.3 °F42 %30.12 in10.0 miSSW (200°)9.2 mphClear
7:55 AM29.5 °F9.3 °F43 %30.13 in10.0 miSouth (180°)8.1 mphClear
8:15 AM30.6 °F9.7 °F42 %30.14 in10.0 miSSW (200°)6.9 mphClear
8:35 AM32.0 °F10.8 °F41 %30.14 in10.0 miSSW (200°)10.4 mphClear
8:55 AM34.9 °F12.4 °F40 %30.14 in10.0 miSSW (210°)8.1 mphClear
9:15 AM38.8 °F12.7 °F34 %30.15 in10.0 miSSW (210°)11.5 mphClear
9:35 AM40.8 °F12.4 °F31 %30.17 in10.0 miSW (220°)13.8 mphClear
9:55 AM44.6 °F14.0 °F29 %30.17 in10.0 miSW (230°)13.8 mphClear
10:15 AM48.2 °F16.2 °F28 %30.18 in10.0 miWSW (250°)13.8 mph19.6 mphClear
10:35 AM49.6 °F16.7 °F27 %30.17 in10.0 miWSW (250°)13.8 mphClear
10:55 AM52.9 °F18.9 °F26 %30.18 in10.0 miWest (260°)17.3 mph21.9 mphClear
11:15 AM54.5 °F19.2 °F25 %30.18 in10.0 miWest (270°)15.0 mphClear
11:35 AM54.5 °F18.9 °F25 %30.18 in10.0 miWest (260°)12.7 mph18.4 mphClear
11:55 AM55.2 °F18.7 °F24 %30.18 in10.0 miWSW (240°)10.4 mphClear
12:15 PM56.5 °F19.0 °F23 %30.17 in10.0 miWSW (250°)12.7 mphClear
12:35 PM57.7 °F18.5 °F22 %30.17 in10.0 miWest (280°)11.5 mph20.7 mphClear
12:55 PM59.4 °F18.0 °F20 %30.15 in10.0 miWNW (290°)9.2 mph17.3 mphClear
1:15 PM59.5 °F16.5 °F19 %30.14 in10.0 miWNW (290°)9.2 mphClear
1:35 PM60.1 °F15.4 °F18 %30.13 in10.0 miWest (270°)10.4 mphClear
1:55 PM60.3 °F13.8 °F16 %30.12 in10.0 miWSW (240°)6.9 mphClear
2:15 PM61.2 °F13.6 °F16 %30.12 in10.0 miWest (260°)8.1 mphClear
2:35 PM61.7 °F13.5 °F15 %30.12 in10.0 miWest (270°)4.6 mphClear
2:55 PM62.2 °F10.9 °F13 %30.12 in10.0 miWest (260°)10.4 mph20.7 mphClear
3:15 PM62.1 °F9.1 °F12 %30.12 in10.0 miWest (280°)5.8 mphClear
3:35 PM62.1 °F9.0 °F12 %30.12 in10.0 miWSW (250°)10.4 mphClear
3:55 PM62.6 °F8.2 °F12 %30.15 in10.0 miWSW (250°)10.4 mphClear
4:15 PM62.8 °F7.7 °F11 %30.15 in10.0 miWSW (240°)9.2 mph17.3 mphClear
4:35 PM63.0 °F7.7 °F11 %30.15 in10.0 miWNW (300°)11.5 mphClear
4:55 PM62.8 °F7.9 °F11 %30.15 in10.0 miWSW (250°)8.1 mphClear
5:15 PM62.1 °F7.5 °F12 %30.15 in10.0 miWNW (290°)8.1 mphClear
5:35 PM61.9 °F7.9 °F12 %30.16 in10.0 miWest (280°)6.9 mphClear
6:15 PM60.1 °F10.2 °F14 %30.17 in10.0 miCalmClear
6:35 PM59.4 °F10.4 °F14 %30.17 in10.0 miCalmClear
6:55 PM59.4 °F10.4 °F14 %30.18 in10.0 miCalmClear
7:15 PM58.8 °F11.5 °F15 %30.20 in10.0 miCalmClear
7:35 PM56.8 °F11.7 °F17 %30.20 in10.0 miCalmClear
7:55 PM57.0 °F10.6 °F16 %30.19 in10.0 miCalmClear
8:15 PM57.0 °F10.9 °F16 %30.20 in10.0 miCalmClear
8:35 PM56.3 °F11.3 °F17 %30.20 in10.0 miCalmClear
8:55 PM54.7 °F13.1 °F19 %30.21 in10.0 miCalmClear
9:15 PM53.8 °F12.7 °F20 %30.22 in10.0 miCalmClear
9:35 PM50.2 °F14.5 °F24 %30.23 in10.0 miNNE (30°)8.1 mphClear
9:55 PM49.6 °F13.6 °F24 %30.23 in10.0 miNNE (30°)6.9 mphClear
10:15 PM49.8 °F13.8 °F24 %30.24 in10.0 miNE (50°)5.8 mphClear
10:35 PM49.3 °F14.2 °F25 %30.24 in10.0 miEast (80°)6.9 mphClear
10:55 PM49.3 °F15.3 °F26 %30.26 in10.0 miNNE (20°)13.8 mphClear
11:15 PM46.4 °F19.9 °F35 %30.27 in10.0 miNE (40°)11.5 mphClear
11:35 PM43.5 °F23.2 °F45 %30.27 in10.0 miNE (40°)11.5 mphClear
11:55 PM42.6 °F25.7 °F51 %30.28 in10.0 miNNE (30°)13.8 mph19.6 mphClear
Hourly data recorded from KSNK, located miles away from Snyder, Texas







STORIES FROM OUR PARTNERS